When you browse on this site, cookies collect data to enhance your experience and personalize the content and advertising you see.
Visit our Privacy Policy to learn more. By continuing to use the site, you agree to this use of cookies and data.
  • In Czech Republic
  • List of Countries
  • For 7 days
  • Water Temperature
  • Satellite Maps
  • Weather Map
  • Weather Widgets
  • user-avatar
    Login

    Hourly Weather Camopi

    Today, 14 December, Friday

    Time Temperature Precipitation Wind Pressure Humidity
    00:00 +22°C° 0 mm 0 mps 750 mmHg 99%
    01:00 +22°C° 0.1 mm 0 mps 750 mmHg 99%
    02:00 +22°C° 0.1 mm 0 mps 750 mmHg 99%
    03:00 +22°C° 0 mm 0 mps 750 mmHg 99%
    04:00 +24°C° 0.1 mm 1 mps 750 mmHg 99%
    05:00 +23°C° 0.1 mm 1 mps 750 mmHg 99%
    06:00 +23°C° 0.1 mm 1 mps 750 mmHg 99%
    07:00 +24°C° 0.1 mm 1 mps 750 mmHg 96%
    08:00 +25°C° 0.1 mm 1 mps 751 mmHg 93%
    09:00 +27°C° 0.1 mm 2 mps 751 mmHg 91%
    10:00 +28°C° 0.1 mm 2 mps 751 mmHg 81%
    11:00 +30°C° 0.1 mm 2 mps 751 mmHg 71%
    12:00 +31°C° 0.1 mm 2 mps 751 mmHg 62%
    13:00 +31°C° 0.6 mm 2 mps 751 mmHg 67%
    14:00 +30°C° 0.6 mm 2 mps 751 mmHg 73%
    15:00 +30°C° 0.6 mm 2 mps 750 mmHg 78%
    16:00 +29°C° 0.5 mm 1 mps 750 mmHg 82%
    17:00 +27°C° 0.5 mm 1 mps 750 mmHg 87%
    18:00 +26°C° 0.5 mm 1 mps 750 mmHg 91%
    19:00 +25°C° 0.1 mm 1 mps 750 mmHg 93%
    20:00 +25°C° 0.1 mm 1 mps 750 mmHg 95%
    21:00 +24°C° 0.1 mm 1 mps 751 mmHg 97%
    22:00 +24°C° 0 mm 1 mps 751 mmHg 97%
    23:00 +24°C° 0 mm 1 mps 751 mmHg 98%

    Tomorrow, 15 December, Saturday

    Time Temperature Precipitation Wind Pressure Humidity
    00:00 +21°C° 0 mm 0 mps 751 mmHg 98%
    01:00 +21°C° 0 mm 0 mps 751 mmHg 98%
    02:00 +21°C° 0 mm 0 mps 751 mmHg 99%
    03:00 +21°C° 0 mm 0 mps 751 mmHg 99%
    04:00 +21°C° 0 mm 0 mps 751 mmHg 99%
    05:00 +21°C° 0 mm 0 mps 751 mmHg 99%
    06:00 +21°C° 0 mm 0 mps 751 mmHg 99%
    07:00 +22°C° 0 mm 0 mps 751 mmHg 95%
    08:00 +25°C° 0 mm 1 mps 752 mmHg 91%
    09:00 +27°C° 0 mm 1 mps 752 mmHg 87%
    10:00 +28°C° 0 mm 1 mps 752 mmHg 77%
    11:00 +30°C° 0 mm 2 mps 752 mmHg 67%
    12:00 +32°C° 0 mm 2 mps 752 mmHg 58%
    13:00 +31°C° 0.1 mm 2 mps 751 mmHg 59%
    14:00 +31°C° 0.1 mm 2 mps 751 mmHg 61%
    15:00 +31°C° 0.1 mm 2 mps 750 mmHg 63%
    16:00 +30°C° 0.4 mm 1 mps 750 mmHg 71%
    17:00 +28°C° 0.4 mm 1 mps 750 mmHg 79%
    18:00 +27°C° 0.4 mm 1 mps 750 mmHg 87%
    19:00 +26°C° 0.1 mm 1 mps 750 mmHg 90%
    20:00 +25°C° 0.1 mm 1 mps 751 mmHg 93%
    21:00 +24°C° 0.1 mm 1 mps 752 mmHg 95%
    22:00 +24°C° 0 mm 1 mps 752 mmHg 96%
    23:00 +24°C° 0 mm 1 mps 752 mmHg 97%

    Day after tomorrow, 16 December, Sunday

    Time Temperature Precipitation Wind Pressure Humidity
    00:00 +21°C° 0 mm 0 mps 752 mmHg 98%
    01:00 +21°C° 0 mm 0 mps 751 mmHg 98%
    02:00 +21°C° 0 mm 0 mps 751 mmHg 98%
    03:00 +21°C° 0 mm 0 mps 750 mmHg 99%
    04:00 +21°C° 0 mm 0 mps 750 mmHg 99%
    05:00 +21°C° 0 mm 0 mps 750 mmHg 99%
    06:00 +21°C° 0 mm 0 mps 750 mmHg 99%
    07:00 +21°C° 0.1 mm 0 mps 751 mmHg 97%
    08:00 +22°C° 0.1 mm 0 mps 752 mmHg 96%
    09:00 +22°C° 0.1 mm 0 mps 753 mmHg 95%
    10:00 +23°C° 0.3 mm 0 mps 752 mmHg 93%
    11:00 +24°C° 0.3 mm 0 mps 752 mmHg 91%
    12:00 +24°C° 0.3 mm 0 mps 752 mmHg 89%
    13:00 +27°C° 0.7 mm 1 mps 751 mmHg 89%
    14:00 +27°C° 0.7 mm 1 mps 751 mmHg 89%
    15:00 +28°C° 0.7 mm 1 mps 750 mmHg 89%
    16:00 +27°C° 0.8 mm 1 mps 750 mmHg 91%
    17:00 +26°C° 0.8 mm 1 mps 749 mmHg 93%
    18:00 +26°C° 0.8 mm 1 mps 749 mmHg 96%
    19:00 +25°C° 0.3 mm 1 mps 750 mmHg 97%
    20:00 +25°C° 0.3 mm 1 mps 750 mmHg 98%
    21:00 +24°C° 0.3 mm 1 mps 751 mmHg 99%
    22:00 +24°C° 0 mm 1 mps 751 mmHg 99%
    23:00 +22°C° 0 mm 0 mps 751 mmHg 99%

    17 December, Monday

    Time Temperature Precipitation Wind Pressure Humidity
    00:00 +21°C° 0 mm 0 mps 751 mmHg 99%
    01:00 +21°C° 0 mm 0 mps 750 mmHg 99%
    02:00 +21°C° 0 mm 0 mps 750 mmHg 99%
    03:00 +21°C° 0 mm 0 mps 749 mmHg 99%
    04:00 +21°C° 0 mm 0 mps 749 mmHg 99%
    05:00 +21°C° 0 mm 0 mps 750 mmHg 99%
    06:00 +21°C° 0 mm 0 mps 750 mmHg 99%
    07:00 +22°C° 0 mm 0 mps 750 mmHg 97%
    08:00 +25°C° 0 mm 1 mps 751 mmHg 95%
    09:00 +26°C° 0 mm 1 mps 751 mmHg 93%
    10:00 +27°C° 0.5 mm 1 mps 751 mmHg 90%
    11:00 +28°C° 0.5 mm 1 mps 751 mmHg 88%
    12:00 +29°C° 0.5 mm 1 mps 751 mmHg 85%
    13:00 +28°C° 1 mm 1 mps 750 mmHg 88%
    14:00 +28°C° 1 mm 1 mps 749 mmHg 91%
    15:00 +28°C° 1 mm 1 mps 749 mmHg 94%
    16:00 +27°C° 1.1 mm 1 mps 749 mmHg 95%
    17:00 +26°C° 1.1 mm 1 mps 749 mmHg 97%
    18:00 +26°C° 1.1 mm 1 mps 749 mmHg 98%
    19:00 +25°C° 1.2 mm 1 mps 749 mmHg 98%
    20:00 +25°C° 1.2 mm 1 mps 750 mmHg 98%
    21:00 +24°C° 1.2 mm 1 mps 751 mmHg 99%
    22:00 +24°C° 0 mm 1 mps 751 mmHg 99%
    23:00 +22°C° 0 mm 0 mps 750 mmHg 99%

    18 December, Tuesday

    Time Temperature Precipitation Wind Pressure Humidity
    00:00 +22°C° 0 mm 0 mps 750 mmHg 99%
    01:00 +22°C° 0 mm 0 mps 750 mmHg 99%
    02:00 +21°C° 0 mm 0 mps 749 mmHg 99%
    03:00 +21°C° 0 mm 0 mps 749 mmHg 99%
    04:00 +21°C° 0 mm 0 mps 749 mmHg 99%
    05:00 +21°C° 0 mm 0 mps 749 mmHg 99%
    06:00 +21°C° 0 mm 0 mps 749 mmHg 99%
    07:00 +22°C° 0 mm 0 mps 750 mmHg 97%
    08:00 +23°C° 0 mm 0 mps 751 mmHg 95%
    09:00 +26°C° 0 mm 1 mps 751 mmHg 93%
    10:00 +27°C° 0.5 mm 1 mps 751 mmHg 91%
    11:00 +28°C° 0.5 mm 1 mps 751 mmHg 88%
    12:00 +29°C° 0.5 mm 1 mps 750 mmHg 85%
    13:00 +28°C° 0.8 mm 1 mps 750 mmHg 88%
    14:00 +28°C° 0.8 mm 1 mps 749 mmHg 90%
    15:00 +28°C° 0.8 mm 1 mps 748 mmHg 93%
    16:00 +27°C° 0.4 mm 1 mps 748 mmHg 94%
    17:00 +27°C° 0.4 mm 1 mps 748 mmHg 96%
    18:00 +26°C° 0.4 mm 1 mps 748 mmHg 98%
    19:00 +26°C° 0.2 mm 1 mps 749 mmHg 98%
    20:00 +25°C° 0.2 mm 1 mps 750 mmHg 99%
    21:00 +25°C° 0.2 mm 1 mps 750 mmHg 99%
    22:00 +24°C° 0.1 mm 1 mps 750 mmHg 99%
    23:00 +22°C° 0.1 mm 0 mps 750 mmHg 99%

    19 December, Wednesday

    Time Temperature Precipitation Wind Pressure Humidity
    00:00 +22°C° 0.1 mm 0 mps 750 mmHg 99%
    01:00 +22°C° 0 mm 0 mps 750 mmHg 99%
    02:00 +22°C° 0 mm 0 mps 749 mmHg 99%
    03:00 +22°C° 0 mm 0 mps 749 mmHg 99%
    04:00 +22°C° 0 mm 0 mps 749 mmHg 99%
    05:00 +22°C° 0 mm 0 mps 749 mmHg 99%
    06:00 +22°C° 0 mm 0 mps 749 mmHg 99%
    07:00 +23°C° 0 mm 0 mps 750 mmHg 98%
    08:00 +25°C° 0 mm 1 mps 750 mmHg 96%
    09:00 +26°C° 0 mm 1 mps 751 mmHg 94%
    10:00 +27°C° 0.4 mm 1 mps 751 mmHg 93%
    11:00 +27°C° 0.4 mm 1 mps 750 mmHg 91%
    12:00 +28°C° 0.4 mm 1 mps 750 mmHg 89%
    13:00 +28°C° 0.4 mm 1 mps 749 mmHg 91%
    14:00 +28°C° 0.4 mm 1 mps 749 mmHg 92%
    15:00 +27°C° 0.4 mm 1 mps 748 mmHg 94%
    16:00 +27°C° 0.3 mm 1 mps 748 mmHg 95%
    17:00 +26°C° 0.3 mm 1 mps 748 mmHg 96%
    18:00 +26°C° 0.3 mm 1 mps 748 mmHg 97%
    19:00 +25°C° 0.3 mm 1 mps 749 mmHg 98%
    20:00 +25°C° 0.3 mm 1 mps 749 mmHg 98%
    21:00 +24°C° 0.3 mm 1 mps 750 mmHg 99%
    22:00 +24°C° 0 mm 1 mps 750 mmHg 99%
    23:00 +24°C° 0 mm 1 mps 750 mmHg 99%
    Show more